Location: Lugrin
(46.4033°N, 6.6674°E)
Time: 10:25:57
(UTC+00:00)

Cosmos 494 Rocket - Pass Details

Date: 18 September 2020
Orbit: 741 x 771 km, 74.1° (Epoch: 24 October)

Event Time Altitude Azimuth Distance (km) Brightness Sun altitude
Rises 19:57:11 0° 337° (NNW) 3,244 8.1 -23.7°
Reaches altitude 10° 19:59:34 10° 337° (NNW) 2,317 7.2 -24.0°
Maximum altitude 20:04:51 86° 250° (WSW) 779 3.9 -24.8°
Enters shadow 20:05:35 67° 169° (S) 837 3.9 -24.9°
